Regional Weather Roundup
Issued by NWS

Home | Current Version | Previous Version | Text Only | Print | Product List | Glossary Off
Versions: 1 2 3 4 5 6 7 8 9 10 11 12 13 14 15 16 17 18 19 20 21 22 23 24 25 26 27 28 29 30 31 32 33 34 35 36 37 38 39 40 41 42 43 44 45 46 47 48 49 50

000
ASUS43 KFSD 280602
RWRSD

WEATHER ROUNDUP FOR SOUTH DAKOTA
NATIONAL WEATHER SERVICE SIOUX FALLS SD
1200 AM CST SAT FEB 28 2015

NOTE: "FAIR" INDICATES FEW OR NO CLOUDS BELOW 12,000 FEET WITH NO
SIGNIFICANT WEATHER AND/OR OBSTRUCTIONS TO VISIBILITY.


SDZ001>005-009-010-012>017-280700-
NORTHWEST AND NORTH CENTRAL SOUTH DAKOTA

CITY           SKY/WX    TMP DP  RH WIND       PRES   REMARKS
BUFFALO          N/A     14   8  77 SW5       29.91F WCI   6
FAITH            N/A     16   6  65 S16       30.04F WCI   1
MOBRIDGE       PTCLDY    12   0  58 SE8       30.15S WCI   0
$$

SDZ012>016-024>037-041>051-057-063-072>074-280700-
SOUTHWEST AND SOUTH CENTRAL SOUTH DAKOTA

CITY           SKY/WX    TMP DP  RH WIND       PRES   REMARKS
RAPID CTY ARPT CLEAR     10   6  84 SE10      30.01F WCI  -4
PIERRE         CLEAR     13  -1  54 SE8       30.20F WCI   2
CUSTER         CLOUDY     6   2  83 SW6       29.86F FOG     WCI  -4
ELLSWORTH AFB  PTCLDY    15   7  72 S12       29.99S WCI   1
PHILIP         PTCLDY    13   4  67 S8        30.13F WCI   2
PINE RIDGE     PTCLDY    18   7  62 S14G20    30.05F WCI   4
WINNER         FAIR      16  -3  43 S16       30.22F WCI   1
$$

SDZ004>011-016>023-039-040-280700-
NORTHEAST SOUTH DAKOTA

CITY           SKY/WX    TMP DP  RH WIND       PRES   REMARKS
ABERDEEN       PTCLDY     9   1  70 S17       30.31S WCI  -9
WATERTOWN      CLEAR      2  -4  76 S14       30.33F WCI -16
SISSETON         N/A      4  -2  76 S12       30.35F WCI -12
$$

SDZ017-020-022-023-036>040-048>070-280700-
SOUTHEAST SOUTH DAKOTA

CITY           SKY/WX    TMP DP  RH WIND       PRES   REMARKS
SIOUX FALLS    CLEAR      6  -1  73 S13       30.41F WCI -10
HURON          CLEAR      8   1  73 S15       30.34F WCI  -9
MITCHELL       CLEAR     11   2  67 S13       30.38S WCI  -4
YANKTON        CLEAR      9   1  72 SE9       30.43F WCI  -5
$$

ABBREVIATIONS USED IN REMARKS
   TC - TEMPERATURE IN CELSIUS
  WCI - WIND CHILL INDEX
   HX - HEAT INDEX
  VSB - VISIBILITY



USA.gov is the U.S. government's official web portal to all federal, state and local government web resources and services.